Regional Weather Roundup
Issued by NWS Newport/Morehead, NC

Current Version | Previous Version | Graphics & Text | Print | Product List | Glossary On
Versions: 1 2 3 4 5 6 7 8 9 10 11 12 13 14 15 16 17 18 19 20 21 22 23 24 25 26 27 28 29 30 31 32 33 34 35 36 37 38 39 40 41 42 43 44 45 46 47 48 49 50
000 ASUS42 KMHX 200410 RWRMHX WEATHER ROUNDUP FOR EASTERN NORTH CAROLINA NATIONAL WEATHER SERVICE NEWPORT/MOREHEAD CITY NC 1200 AM EDT SAT SEP 20 2014 NOTE: "FAIR" INDICATES FEW OR NO CLOUDS BELOW 12,000 FEET WITH NO SIGNIFICANT WEATHER AND/OR OBSTRUCTIONS TO VISIBILITY NCZ015>017-031-032-045>047-102-103-200500- NORTH COAST CITY SKY/WX TMP DP RH WIND PRES REMARKS EDENTON CLEAR 63 60 90 N3 30.24F ELIZABETH CITY CLEAR 67 60 78 NE6 30.24F KITTY HAWK PTCLDY 72 59 64 NE7 30.22S MANTEO CLOUDY 72 60 66 NE13G18 30.23F $$ NCZ045>047-081-094-103-104-200500- CENTRAL COAST CITY SKY/WX TMP DP RH WIND PRES REMARKS FRISCO MOCLDY 70 63 78 NE9 30.19F SWANQUARTER N/A 68 N/A N/A NE9 30.18S $$ NCZ095-097-098-100-101-200500- SOUTHERN COAST CITY SKY/WX TMP DP RH WIND PRES REMARKS BEAUFORT CLOUDY 72 63 73 NE8 30.18F CEDAR ISLAND N/A 73 N/A N/A NE17G26 30.24S JACKSONVILLE CLOUDY 68 60 75 NE12 30.18F NEWPORT NOT AVBL PINEY ISLAND CLOUDY 76 63 64 NE16G28 30.18F WILMINGTON CLOUDY 70 61 73 NE10 30.17S $$ NCZ011>013-027>030-043-044-078>080-089-090>093-098-200500- COASTAL PLAIN CITY SKY/WX TMP DP RH WIND PRES REMARKS AHOSKIE CLEAR 59 56 90 N5 30.26S CLINTON CLEAR 66 61 82 NE3 30.21S ELIZABETHTOWN PTCLDY 66 60 80 CALM 30.19S GOLDSBORO PTCLDY 65 63 91 NE3 30.21R GREENVILLE PTCLDY 59 59 100 N3 30.24S HAVELOCK CLOUDY 71 62 73 NE10 30.20F KENANSVILLE MOCLDY 65 58 77 CALM 30.22S KINSTON PTCLDY 65 59 82 NE6 30.23S NEW BERN CLOUDY 69 60 73 NE8 30.21F RICHLANDS MOCLDY 64 57 77 NE8 30.20F ROANOKE RAPIDS NOT AVBL ROCKY MOUNT CLEAR 62 58 86 NE5 30.24S WASHINGTON PTCLDY 64 58 81 NE6 30.23S WHITEVILLE PTCLDY 69 62 78 NE7 30.17S $$ AMZ130-135-150-152-154-156-158-170-250-252-270-ANZ085-086-088-633-658-670-200500- MARINE OBSERVATIONS STATION/POSITION TIME TEMP WIND PRES WAVE SWELL AIR SEA DIR/SP/G HT/PER HT/PER (UTC) (F) (DEG/KT/KT) (MB) (FT/S) (FT/S) CHESAPEAKE LIGHT 0300 71 80/ 15/ 17 1025.2 BUOY 44014 0400 73 75 50/ 16/ 17 1023.5 4/ 5 2/ 7 DUCK 0400 73 75 60/ 17/ 19 1023.1 2E DUCK 0400 N/A 5/ 6 OREGON INLET 0400 72 74 30/ 13/ 17 1023.1 BUOY 44095 0400 75 N/A 6/ 6 2/11 20E OREGON INLET NOT AVBL HATTERAS CG 0400 73 76 40/ 11/ 17 1022.7 DIAMOND BUOY 0400 76 60/ 17/ 21 1021.5 6/ 7 2/ 9 CAPE LOOKOUT 0300 74 40/ 20/ 24 1021.9 BEAUFORT LAB 0400 72 77 40/ 6/ 14 1021.3 30 SE NEW RIVER 0300 78 82 50/ 23/ 27 1020.7 5 SE WRIGHTSVILL 0300 73 80 80/ 21/ 25 N/A BUOY 41002 0335 79 82 70/ 21/ 23 1018.6 8/ 8 2/11 BUOY 41004 0400 77 82 60/ 25/ 31 1017.4 7/ 6 $$

USA.gov is the U.S. government's official web portal to all federal, state and local government web resources and services.